Time,TemperatureF,DewpointF,PressureIn,WindDirection,WindDirectionDegrees,WindSpeedMPH,WindSpeedGustMPH,Humidity,HourlyPrecipIn,Conditions,Clouds,dailyrainin,SolarRadiationWatts/m^2,SoftwareType,DateUTC
2013-09-01 00:22:00,64.0,63.0,-100.00,South,190,15.0,19.0,96,0.00,,,0.00,1.000000,,2013-09-01 07:22:00,
2013-09-01 00:32:00,64.0,63.0,-100.00,South,190,15.0,19.0,96,0.00,,,0.00,1.000000,,2013-09-01 07:32:00,
2013-09-01 00:42:00,64.0,63.0,-100.00,South,190,15.0,19.0,96,0.00,,,0.00,1.000000,,2013-09-01 07:42:00,
2013-09-01 00:52:00,64.0,63.0,-100.00,South,190,15.0,19.0,96,0.00,,,0.00,1.000000,,2013-09-01 07:52:00,
2013-09-01 01:22:00,64.0,63.0,-100.00,SSW,200,13.0,20.0,96,0.00,,,0.00,1.000000,,2013-09-01 08:22:00,
2013-09-01 01:32:00,64.0,63.0,-100.00,SSW,200,13.0,20.0,96,0.00,,,0.00,1.000000,,2013-09-01 08:32:00,
2013-09-01 01:43:00,64.0,63.0,-100.00,SSW,200,13.0,20.0,96,0.00,,,0.00,1.000000,,2013-09-01 08:43:00,
2013-09-01 01:52:00,64.0,63.0,-100.00,SSW,200,13.0,20.0,96,0.00,,,0.00,1.000000,,2013-09-01 08:52:00,
2013-09-01 02:21:00,63.0,62.0,-100.00,SSW,198,13.0,17.0,97,0.00,,,0.00,1.000000,,2013-09-01 09:21:00,
2013-09-01 02:33:00,63.0,62.0,-100.00,SSW,198,13.0,17.0,97,0.00,,,0.00,1.000000,,2013-09-01 09:33:00,
2013-09-01 02:43:00,63.0,62.0,-100.00,SSW,198,13.0,17.0,97,0.00,,,0.00,1.000000,,2013-09-01 09:43:00,
2013-09-01 02:53:00,63.0,62.0,-100.00,SSW,198,13.0,17.0,97,0.00,,,0.00,1.000000,,2013-09-01 09:53:00,
2013-09-01 03:23:00,64.0,62.0,-100.00,SSW,200,11.0,15.0,94,0.00,,,0.00,1.000000,,2013-09-01 10:23:00,
2013-09-01 03:33:00,64.0,62.0,-100.00,SSW,200,11.0,15.0,94,0.00,,,0.00,1.000000,,2013-09-01 10:33:00,
2013-09-01 03:42:00,64.0,62.0,-100.00,SSW,200,11.0,15.0,94,0.00,,,0.00,1.000000,,2013-09-01 10:42:00,
2013-09-01 03:53:00,64.0,62.0,-100.00,SSW,200,11.0,15.0,94,0.00,,,0.00,1.000000,,2013-09-01 10:53:00,
2013-09-01 04:22:00,64.0,60.0,-100.00,SSW,197,12.0,17.0,87,0.00,,,0.00,1.000000,,2013-09-01 11:22:00,
2013-09-01 04:32:00,64.0,60.0,-100.00,SSW,197,12.0,17.0,87,0.00,,,0.00,1.000000,,2013-09-01 11:32:00,
2013-09-01 04:42:00,64.0,60.0,-100.00,SSW,197,12.0,17.0,87,0.00,,,0.00,1.000000,,2013-09-01 11:42:00,
2013-09-01 04:52:00,64.0,60.0,-100.00,SSW,197,12.0,17.0,87,0.00,,,0.00,1.000000,,2013-09-01 11:52:00,
2013-09-01 05:22:00,63.0,62.0,-100.00,South,185,11.0,15.0,98,0.00,,,-99.99,1.000000,,2013-09-01 12:22:00,
2013-09-01 05:32:00,63.0,62.0,-100.00,South,185,11.0,15.0,98,0.00,,,-99.99,1.000000,,2013-09-01 12:32:00,
2013-09-01 05:42:00,63.0,62.0,-100.00,South,185,11.0,15.0,98,0.00,,,-99.99,1.000000,,2013-09-01 12:42:00,
2013-09-01 05:52:00,63.0,62.0,-100.00,South,185,11.0,15.0,98,0.00,,,-99.99,1.000000,,2013-09-01 12:52:00,
2013-09-01 06:42:00,63.0,63.0,-100.00,SSW,195,13.0,16.0,100,0.00,,,0.00,1.000000,,2013-09-01 13:42:00,
2013-09-01 06:52:00,63.0,63.0,-100.00,SSW,195,13.0,16.0,100,0.00,,,0.00,1.000000,,2013-09-01 13:52:00,
2013-09-01 07:22:00,62.0,62.0,-100.00,SSW,193,13.0,17.0,100,0.00,,,0.00,7.000000,,2013-09-01 14:22:00,
2013-09-01 07:32:00,62.0,62.0,-100.00,SSW,193,13.0,17.0,100,0.00,,,0.00,7.000000,,2013-09-01 14:32:00,
2013-09-01 07:42:00,62.0,62.0,-100.00,SSW,193,13.0,17.0,100,0.00,,,0.00,7.000000,,2013-09-01 14:42:00,
2013-09-01 07:52:00,62.0,62.0,-100.00,SSW,193,13.0,17.0,100,0.00,,,0.00,7.000000,,2013-09-01 14:52:00,
2013-09-01 08:23:00,64.0,62.0,-100.00,SSW,194,15.0,19.0,92,0.00,,,0.00,65.000000,,2013-09-01 15:23:00,
2013-09-01 08:34:00,64.0,62.0,-100.00,SSW,194,15.0,19.0,92,0.00,,,0.00,65.000000,,2013-09-01 15:34:00,
2013-09-01 08:44:00,64.0,62.0,-100.00,SSW,194,15.0,19.0,92,0.00,,,0.00,65.000000,,2013-09-01 15:44:00,
2013-09-01 08:55:00,64.0,62.0,-100.00,SSW,194,15.0,19.0,92,0.00,,,0.00,65.000000,,2013-09-01 15:55:00,
2013-09-01 09:43:00,69.0,63.0,-100.00,South,181,13.0,20.0,81,0.00,,,0.00,341.000000,,2013-09-01 16:43:00,
2013-09-01 09:53:00,69.0,63.0,-100.00,South,181,13.0,20.0,81,0.00,,,0.00,341.000000,,2013-09-01 16:53:00,
2013-09-01 10:23:00,73.0,63.0,-100.00,South,179,15.0,20.0,70,0.00,,,0.00,393.000000,,2013-09-01 17:23:00,
2013-09-01 10:34:00,73.0,63.0,-100.00,South,179,15.0,20.0,70,0.00,,,0.00,393.000000,,2013-09-01 17:34:00,
2013-09-01 10:42:00,73.0,63.0,-100.00,South,179,15.0,20.0,70,0.00,,,0.00,393.000000,,2013-09-01 17:42:00,
2013-09-01 10:52:00,73.0,63.0,-100.00,South,179,15.0,20.0,70,0.00,,,0.00,393.000000,,2013-09-01 17:52:00,
2013-09-01 11:22:00,75.0,60.0,-100.00,South,175,15.0,26.0,59,0.00,,,0.00,516.000000,,2013-09-01 18:22:00,
2013-09-01 11:32:00,75.0,60.0,-100.00,South,175,15.0,26.0,59,0.00,,,0.00,516.000000,,2013-09-01 18:32:00,
2013-09-01 11:42:00,75.0,60.0,-100.00,South,175,15.0,26.0,59,0.00,,,0.00,516.000000,,2013-09-01 18:42:00,
2013-09-01 11:52:00,75.0,60.0,-100.00,South,175,15.0,26.0,59,0.00,,,0.00,516.000000,,2013-09-01 18:52:00,
2013-09-01 12:42:00,76.0,59.0,-100.00,South,184,16.0,25.0,56,0.00,,,0.00,542.000000,,2013-09-01 19:42:00,
2013-09-01 12:52:00,76.0,59.0,-100.00,South,184,16.0,25.0,56,0.00,,,0.00,542.000000,,2013-09-01 19:52:00,
2013-09-01 13:21:00,80.0,61.0,-100.00,South,183,16.0,27.0,52,0.00,,,0.00,771.000000,,2013-09-01 20:21:00,
2013-09-01 13:32:00,80.0,61.0,-100.00,South,183,16.0,27.0,52,0.00,,,0.00,771.000000,,2013-09-01 20:32:00,
2013-09-01 13:42:00,80.0,61.0,-100.00,South,183,16.0,27.0,52,0.00,,,0.00,771.000000,,2013-09-01 20:42:00,
2013-09-01 13:52:00,80.0,61.0,-100.00,South,183,16.0,27.0,52,0.00,,,0.00,771.000000,,2013-09-01 20:52:00,
2013-09-01 14:21:00,82.0,61.0,-100.00,South,186,18.0,27.0,50,0.00,,,0.00,1081.000000,,2013-09-01 21:21:00,
2013-09-01 14:34:00,82.0,61.0,-100.00,South,186,18.0,27.0,50,0.00,,,0.00,1081.000000,,2013-09-01 21:34:00,
2013-09-01 14:43:00,82.0,61.0,-100.00,South,186,18.0,27.0,50,0.00,,,0.00,1081.000000,,2013-09-01 21:43:00,
2013-09-01 14:54:00,82.0,61.0,-100.00,South,186,18.0,27.0,50,0.00,,,0.00,1081.000000,,2013-09-01 21:54:00,
2013-09-01 15:24:00,81.0,62.0,-100.00,South,184,19.0,29.0,52,0.00,,,0.00,1001.000000,,2013-09-01 22:24:00,
2013-09-01 15:34:00,81.0,62.0,-100.00,South,184,19.0,29.0,52,0.00,,,0.00,1001.000000,,2013-09-01 22:34:00,
2013-09-01 15:42:00,81.0,62.0,-100.00,South,184,19.0,29.0,52,0.00,,,0.00,1001.000000,,2013-09-01 22:42:00,
2013-09-01 15:53:00,81.0,62.0,-100.00,South,184,19.0,29.0,52,0.00,,,0.00,1001.000000,,2013-09-01 22:53:00,
2013-09-01 16:23:00,76.0,60.0,-100.00,South,184,21.0,29.0,57,0.00,,,0.00,598.000000,,2013-09-01 23:23:00,
2013-09-01 16:34:00,76.0,60.0,-100.00,South,184,21.0,29.0,57,0.00,,,0.00,598.000000,,2013-09-01 23:34:00,
2013-09-01 16:42:00,76.0,60.0,-100.00,South,184,21.0,29.0,57,0.00,,,0.00,598.000000,,2013-09-01 23:42:00,
2013-09-01 16:53:00,76.0,60.0,-100.00,South,184,21.0,29.0,57,0.00,,,0.00,598.000000,,2013-09-01 23:53:00,
2013-09-01 17:22:00,79.0,61.0,-100.00,South,190,20.0,31.0,55,0.00,,,0.00,586.000000,,2013-09-02 00:22:00,
2013-09-01 17:33:00,79.0,61.0,-100.00,South,190,20.0,31.0,55,0.00,,,0.00,586.000000,,2013-09-02 00:33:00,
2013-09-01 17:42:00,79.0,61.0,-100.00,South,190,20.0,31.0,55,0.00,,,0.00,586.000000,,2013-09-02 00:42:00,
2013-09-01 17:52:00,79.0,61.0,-100.00,South,190,20.0,31.0,55,0.00,,,0.00,586.000000,,2013-09-02 00:52:00,
2013-09-01 18:42:00,75.0,59.0,-100.00,South,184,17.0,31.0,58,0.00,,,0.00,384.000000,,2013-09-02 01:42:00,
2013-09-01 18:52:00,75.0,59.0,-100.00,South,184,17.0,31.0,58,0.00,,,0.00,384.000000,,2013-09-02 01:52:00,
2013-09-01 19:22:00,70.0,59.0,-100.00,SSW,194,15.0,24.0,68,0.00,,,0.00,82.000000,,2013-09-02 02:22:00,
2013-09-01 19:33:00,70.0,59.0,-100.00,SSW,194,15.0,24.0,68,0.00,,,0.00,82.000000,,2013-09-02 02:33:00,
2013-09-01 19:42:00,70.0,59.0,-100.00,SSW,194,15.0,24.0,68,0.00,,,0.00,82.000000,,2013-09-02 02:42:00,
2013-09-01 19:52:00,70.0,59.0,-100.00,SSW,194,15.0,24.0,68,0.00,,,0.00,82.000000,,2013-09-02 02:52:00,
2013-09-01 20:22:00,68.0,59.0,-100.00,South,184,14.0,22.0,72,0.00,,,0.00,5.000000,,2013-09-02 03:22:00,
2013-09-01 20:34:00,68.0,59.0,-100.00,South,184,14.0,22.0,72,0.00,,,0.00,5.000000,,2013-09-02 03:34:00,
2013-09-01 20:44:00,68.0,59.0,-100.00,South,184,14.0,22.0,72,0.00,,,0.00,5.000000,,2013-09-02 03:44:00,
2013-09-01 20:56:00,68.0,59.0,-100.00,South,184,14.0,22.0,72,0.00,,,0.00,5.000000,,2013-09-02 03:56:00,
2013-09-01 21:44:00,67.0,60.0,-100.00,SSW,192,15.0,20.0,77,0.00,,,0.00,1.000000,,2013-09-02 04:44:00,
2013-09-01 21:54:00,67.0,60.0,-100.00,SSW,192,15.0,20.0,77,0.00,,,0.00,1.000000,,2013-09-02 04:54:00,
2013-09-01 22:23:00,66.0,61.0,-100.00,SSW,196,14.0,19.0,83,0.00,,,0.00,1.000000,,2013-09-02 05:23:00,
2013-09-01 22:34:00,66.0,61.0,-100.00,SSW,196,14.0,19.0,83,0.00,,,0.00,1.000000,,2013-09-02 05:34:00,
2013-09-01 22:43:00,66.0,61.0,-100.00,SSW,196,14.0,19.0,83,0.00,,,0.00,1.000000,,2013-09-02 05:43:00,
2013-09-01 22:52:00,66.0,61.0,-100.00,SSW,196,14.0,19.0,83,0.00,,,0.00,1.000000,,2013-09-02 05:52:00,
2013-09-01 23:22:00,65.0,61.0,-100.00,SSW,193,12.0,17.0,86,0.00,,,0.00,1.000000,,2013-09-02 06:22:00,
2013-09-01 23:32:00,65.0,61.0,-100.00,SSW,193,12.0,17.0,86,0.00,,,0.00,1.000000,,2013-09-02 06:32:00,
2013-09-01 23:43:00,65.0,61.0,-100.00,SSW,193,12.0,17.0,86,0.00,,,0.00,1.000000,,2013-09-02 06:43:00,
2013-09-01 23:52:00,65.0,61.0,-100.00,SSW,193,12.0,17.0,86,0.00,,,0.00,1.000000,,2013-09-02 06:52:00,